Weather History for Memphis, TN

Change the Weather History Date:

Monday, January 21, 2013

  Actual Average Record
Temperature  
Mean Temperature 37 °F 41 °F  
Max Temperature 45 °F 50 °F 75 °F (1999)
Min Temperature 28 °F 33 °F 1 °F (1985)
Degree Days  
Heating Degree Days 28 24  
Month to date heating degree days 458 504  
Since 1 July heating degree days 1485 1668  
Cooling Degree Days 0 0  
Month to date cooling degree days 4 0  
Year to date cooling degree days 4 0  
Moisture  
Dew Point 18 °F    
Average Humidity 46    
Maximum Humidity 64    
Minimum Humidity 28    
Precipitation  
Precipitation 0.00 in 0.12 in 3.44 in (1906)
Month to date precipitation 5.89 2.69  
Year to date precipitation 5.89 2.69  
Snow  
Snow 0.00 in 0.10 in 3.20 in (1935)
Month to date snowfall T 1.3  
Since 1 July snowfall 0.9 1.5  
Snow Depth 0.00 in    
Sea Level Pressure  
Sea Level Pressure 30.30 in    
Wind  
Wind Speed 8 mph (NNE)    
Max Wind Speed 18 mph    
Max Gust Speed 23 mph    
Visibility 10 miles    
Events      
T = Trace of Precipitation, MM = Missing Value Source: NWS Daily Summary

Daily Weather History Graph

Daily Weather History Graph

Search for Another Location

Airport:

Trip Planner

Search our weather history database for the weather conditions in past years. The results will help you decide how hot, cold, wet, or windy it might be!

Date:

Astronomy

Jan. 21, 2013 Rise Set
Actual Time 7:05 AM CST 5:17 PM CST
Civil Twilight 6:38 AM CST 5:44 PM CST
Nautical Twilight 6:07 AM CST 6:15 PM CST
Astronomical Twilight 5:37 AM CST 6:45 PM CST
Moon 12:58 PM CST (1/21) 2:33 AM CST (1/21)
Length of Visible Light 11h 06m
Length of Day
10h 12m
Waxing Gibbous, 75% of the Moon is Illuminated
Jan 21
Waxing Gibbous
Jan 26
Full
Feb 3
Last Quarter
Feb 10
New
Feb 17
First Quarter

Hourly Weather History & Observations

Time (CST) Temp. Windchill Dew Point Humidity Pressure Visibility Wind Dir Wind Speed Gust Speed Precip Events Conditions
12:54 AM 37.0 °F 32.4 °F 26.1 °F 65% 30.19 in 10.0 mi NNE 5.8 mph - N/A   Clear
1:54 AM 37.0 °F 32.4 °F 24.1 °F 59% 30.20 in 10.0 mi NNE 5.8 mph - N/A   Clear
2:54 AM 36.0 °F 29.6 °F 21.0 °F 55% 30.20 in 10.0 mi NNE 8.1 mph - N/A   Clear
3:54 AM 35.1 °F 27.9 °F 19.9 °F 54% 30.22 in 10.0 mi North 9.2 mph - N/A   Partly Cloudy
4:54 AM 33.1 °F 24.4 °F 19.9 °F 59% 30.25 in 10.0 mi North 11.5 mph - N/A   Partly Cloudy
5:54 AM 33.1 °F 24.4 °F 21.0 °F 61% 30.28 in 10.0 mi NNE 11.5 mph - N/A   Mostly Cloudy
6:54 AM 33.1 °F 23.4 °F 21.0 °F 61% 30.30 in 10.0 mi NNE 13.8 mph - N/A   Overcast
7:54 AM 33.1 °F 23.9 °F 16.0 °F 50% 30.34 in 10.0 mi NNE 12.7 mph - N/A   Mostly Cloudy
8:54 AM 35.1 °F 25.9 °F 16.0 °F 46% 30.36 in 10.0 mi North 13.8 mph - N/A   Partly Cloudy
9:54 AM 37.0 °F 29.3 °F 18.0 °F 46% 30.36 in 10.0 mi NNE 11.5 mph - N/A   Clear
10:54 AM 39.0 °F 32.3 °F 17.1 °F 41% 30.36 in 10.0 mi North 10.4 mph - N/A   Clear
11:54 AM 42.1 °F 36.6 °F 15.1 °F 34% 30.32 in 10.0 mi NNE 9.2 mph - N/A   Clear
12:54 PM 43.0 °F 37.2 °F 15.1 °F 32% 30.30 in 10.0 mi NNE 10.4 mph - N/A   Clear
1:54 PM 44.1 °F 38.1 °F 14.0 °F 30% 30.30 in 10.0 mi NNW 11.5 mph 18.4 mph N/A   Clear
2:54 PM 42.1 °F 36.1 °F 16.0 °F 35% 30.31 in 10.0 mi NNE 10.4 mph - N/A   Clear
3:54 PM 41.0 °F 35.2 °F 16.0 °F 36% 30.32 in 10.0 mi North 9.2 mph - N/A   Clear
4:54 PM 37.4 °F 30.8 °F 17.6 °F 45% 30.32 in 10.0 mi North 9.2 mph - N/A   Partly Cloudy
5:54 PM 35.1 °F 28.6 °F 17.1 °F 48% 30.33 in 10.0 mi NNE 8.1 mph - N/A   Partly Cloudy
6:54 PM 33.1 °F 28.7 °F 17.1 °F 52% 30.33 in 10.0 mi North 4.6 mph - N/A   Clear
7:54 PM 33.1 °F 28.7 °F 17.1 °F 52% 30.32 in 10.0 mi ENE 4.6 mph - N/A   Clear
8:54 PM 32.0 °F 27.5 °F 17.1 °F 54% 30.32 in 10.0 mi ESE 4.6 mph - N/A   Clear
9:54 PM 33.1 °F - 17.1 °F 52% 30.33 in 10.0 mi Calm Calm - N/A   Clear
10:54 PM 30.0 °F - 19.0 °F 64% 30.33 in 10.0 mi Calm Calm - N/A   Clear
11:54 PM 30.0 °F 26.5 °F 19.9 °F 66% 30.33 in 10.0 mi North 3.5 mph - N/A   Clear